Time,TemperatureF,DewpointF,PressureIn,WindDirection,WindDirectionDegrees,WindSpeedMPH,WindSpeedGustMPH,Humidity,HourlyPrecipIn,Conditions,Clouds,dailyrainin,SoftwareType,DateUTC
2013-05-09 00:02:00,49.3,45.6,30.18,WNW,292,0.0,0.0,87,0.00,,---,0.00,VWS V14.01,2013-05-09 07:02:00,
2013-05-09 00:07:00,49.5,45.8,30.18,WNW,292,0.0,0.0,87,0.00,,---,0.00,VWS V14.01,2013-05-09 07:07:00,
2013-05-09 00:12:00,49.6,45.9,30.18,WNW,292,0.0,0.0,87,0.00,,---,0.00,VWS V14.01,2013-05-09 07:12:00,
2013-05-09 00:17:00,50.0,46.6,30.21,NE,45,0.0,0.0,88,0.00,,---,0.00,VWS V14.01,2013-05-09 07:17:00,
2013-05-09 00:22:00,50.2,47.1,30.21,NNE,22,0.0,0.0,89,0.00,,---,0.00,VWS V14.01,2013-05-09 07:22:00,
2013-05-09 00:27:00,50.2,47.4,30.21,NNE,22,0.0,0.0,90,0.00,,---,0.00,VWS V14.01,2013-05-09 07:27:00,
2013-05-09 00:32:00,50.2,47.4,30.21,North,0,0.0,0.0,90,0.00,,---,0.00,VWS V14.01,2013-05-09 07:32:00,
2013-05-09 00:37:00,50.2,47.4,30.21,North,0,0.0,0.0,90,0.00,,---,0.00,VWS V14.01,2013-05-09 07:37:00,
2013-05-09 00:42:00,50.2,47.4,30.21,NW,315,0.0,0.0,90,0.00,,---,0.00,VWS V14.01,2013-05-09 07:42:00,
2013-05-09 00:47:00,50.4,47.5,30.21,ENE,68,0.0,0.0,90,0.00,,---,0.00,VWS V14.01,2013-05-09 07:47:00,
2013-05-09 00:53:00,50.2,47.4,30.21,NE,45,0.0,0.0,90,0.00,,---,0.00,VWS V14.01,2013-05-09 07:53:00,
2013-05-09 00:58:00,50.4,47.5,30.21,ENE,68,0.0,0.0,90,0.00,,---,0.00,VWS V14.01,2013-05-09 07:58:00,
2013-05-09 01:03:00,50.4,48.1,30.21,East,90,0.0,0.0,92,0.00,,---,0.00,VWS V14.01,2013-05-09 08:03:00,
2013-05-09 01:08:00,50.4,48.1,30.21,NE,45,1.1,1.1,92,0.00,,---,0.00,VWS V14.01,2013-05-09 08:08:00,
2013-05-09 01:13:00,50.4,47.8,30.21,SSE,158,0.0,0.0,91,0.00,,---,0.00,VWS V14.01,2013-05-09 08:13:00,
2013-05-09 01:18:00,50.4,47.8,30.24,East,90,0.0,0.0,91,0.00,,---,0.00,VWS V14.01,2013-05-09 08:18:00,
2013-05-09 01:23:00,50.4,47.8,30.24,ESE,112,0.0,0.0,91,0.00,,---,0.00,VWS V14.01,2013-05-09 08:23:00,
2013-05-09 01:28:00,50.4,47.5,30.24,ESE,112,0.0,0.0,90,0.00,,---,0.00,VWS V14.01,2013-05-09 08:28:00,
2013-05-09 01:33:00,50.4,47.5,30.21,ESE,112,0.0,0.0,90,0.00,,---,0.00,VWS V14.01,2013-05-09 08:33:00,
2013-05-09 01:38:00,50.4,47.5,30.21,ESE,112,0.0,0.0,90,0.00,,---,0.00,VWS V14.01,2013-05-09 08:38:00,
2013-05-09 01:43:00,50.4,47.5,30.21,WNW,292,0.0,0.0,90,0.00,,---,0.00,VWS V14.01,2013-05-09 08:43:00,
2013-05-09 01:48:00,50.4,47.5,30.21,NNE,22,0.0,0.0,90,0.00,,---,0.00,VWS V14.01,2013-05-09 08:48:00,
2013-05-09 01:53:00,50.4,47.5,30.21,NW,315,0.0,0.0,90,0.00,,---,0.00,VWS V14.01,2013-05-09 08:53:00,
2013-05-09 01:58:00,50.4,47.5,30.21,North,0,0.0,0.0,90,0.00,,---,0.00,VWS V14.01,2013-05-09 08:58:00,
2013-05-09 02:03:00,50.4,47.5,30.24,North,0,0.0,2.0,90,0.00,,---,0.00,VWS V14.01,2013-05-09 09:03:00,
2013-05-09 02:08:00,50.2,47.7,30.24,NE,45,0.0,0.0,91,0.00,,---,0.00,VWS V14.01,2013-05-09 09:08:00,
2013-05-09 02:13:00,50.2,47.7,30.24,West,270,0.0,0.0,91,0.00,,---,0.00,VWS V14.01,2013-05-09 09:13:00,
2013-05-09 02:18:00,50.2,47.7,30.21,ENE,68,0.0,0.0,91,0.00,,---,0.00,VWS V14.01,2013-05-09 09:18:00,
2013-05-09 02:23:00,50.2,47.7,30.21,West,270,0.0,0.9,91,0.00,,---,0.00,VWS V14.01,2013-05-09 09:23:00,
2013-05-09 02:28:00,50.0,47.5,30.21,East,90,0.0,1.1,91,0.00,,---,0.00,VWS V14.01,2013-05-09 09:28:00,
2013-05-09 02:33:00,49.8,47.9,30.24,ESE,112,0.0,0.0,93,0.00,,---,0.00,VWS V14.01,2013-05-09 09:33:00,
2013-05-09 02:38:00,49.8,47.9,30.24,East,90,0.0,3.1,93,0.00,,---,0.00,VWS V14.01,2013-05-09 09:38:00,
2013-05-09 02:43:00,49.8,47.9,30.24,NNE,22,0.0,0.0,93,0.00,,---,0.00,VWS V14.01,2013-05-09 09:43:00,
2013-05-09 02:48:00,49.8,47.9,30.24,ENE,68,0.0,0.0,93,0.00,,---,0.00,VWS V14.01,2013-05-09 09:48:00,
2013-05-09 02:53:00,49.8,47.9,30.24,North,0,0.0,0.0,93,0.00,,---,0.00,VWS V14.01,2013-05-09 09:53:00,
2013-05-09 02:59:00,49.8,47.9,30.24,NW,315,0.0,0.0,93,0.00,,---,0.00,VWS V14.01,2013-05-09 09:59:00,
2013-05-09 03:04:00,49.8,47.9,30.24,NW,315,0.0,0.0,93,0.00,,---,0.00,VWS V14.01,2013-05-09 10:04:00,
2013-05-09 03:09:00,49.8,47.9,30.24,ESE,112,2.0,2.0,93,0.00,,---,0.00,VWS V14.01,2013-05-09 10:09:00,
2013-05-09 03:14:00,49.6,47.7,30.24,West,270,0.0,0.0,93,0.00,,---,0.00,VWS V14.01,2013-05-09 10:14:00,
2013-05-09 03:19:00,49.6,47.7,30.24,West,270,0.0,0.0,93,0.00,,---,0.00,VWS V14.01,2013-05-09 10:19:00,
2013-05-09 03:24:00,49.6,47.7,30.24,West,270,0.0,1.3,93,0.00,,---,0.00,VWS V14.01,2013-05-09 10:24:00,
2013-05-09 03:29:00,49.6,47.7,30.24,West,270,0.0,0.0,93,0.00,,---,0.00,VWS V14.01,2013-05-09 10:29:00,
2013-05-09 03:34:00,49.8,47.9,30.24,West,270,0.0,0.0,93,0.00,,---,0.00,VWS V14.01,2013-05-09 10:34:00,
2013-05-09 03:39:00,49.8,47.9,30.24,West,270,0.0,0.0,93,0.00,,---,0.00,VWS V14.01,2013-05-09 10:39:00,
2013-05-09 03:44:00,49.6,47.7,30.24,West,270,0.0,0.0,93,0.00,,---,0.00,VWS V14.01,2013-05-09 10:44:00,
2013-05-09 03:49:00,49.8,47.9,30.24,West,270,0.0,0.0,93,0.00,,---,0.00,VWS V14.01,2013-05-09 10:49:00,
2013-05-09 03:54:00,49.6,47.4,30.24,West,270,0.0,0.0,92,0.00,,---,0.00,VWS V14.01,2013-05-09 10:54:00,
2013-05-09 03:59:00,49.6,47.4,30.24,WNW,292,0.0,0.0,92,0.00,,---,0.00,VWS V14.01,2013-05-09 10:59:00,
2013-05-09 04:04:00,49.6,47.4,30.24,WNW,292,0.0,0.0,92,0.00,,---,0.00,VWS V14.01,2013-05-09 11:04:00,
2013-05-09 04:09:00,49.6,47.4,30.24,WSW,248,0.0,0.0,92,0.00,,---,0.00,VWS V14.01,2013-05-09 11:09:00,
2013-05-09 04:14:00,49.5,47.2,30.24,West,270,1.3,1.3,92,0.00,,---,0.00,VWS V14.01,2013-05-09 11:14:00,
2013-05-09 04:19:00,49.3,47.1,30.24,West,270,0.0,2.0,92,0.00,,---,0.00,VWS V14.01,2013-05-09 11:19:00,
2013-05-09 04:24:00,49.5,47.5,30.24,West,270,0.0,0.0,93,0.00,,---,0.00,VWS V14.01,2013-05-09 11:24:00,
2013-05-09 04:29:00,49.5,47.5,30.24,West,270,3.1,3.1,93,0.00,,---,0.00,VWS V14.01,2013-05-09 11:29:00,
2013-05-09 04:34:00,49.3,47.3,30.24,West,270,0.0,0.0,93,0.00,,---,0.00,VWS V14.01,2013-05-09 11:34:00,
2013-05-09 04:39:00,49.3,47.3,30.24,ENE,68,0.0,0.0,93,0.00,,---,0.00,VWS V14.01,2013-05-09 11:39:00,
2013-05-09 04:44:00,49.3,47.3,30.24,ENE,68,0.0,0.0,93,0.00,,---,0.00,VWS V14.01,2013-05-09 11:44:00,
2013-05-09 04:49:00,49.1,47.2,30.24,ESE,112,0.0,0.0,93,0.00,,---,0.00,VWS V14.01,2013-05-09 11:49:00,
2013-05-09 04:54:00,49.1,47.2,30.24,South,180,0.0,0.0,93,0.00,,---,0.00,VWS V14.01,2013-05-09 11:54:00,
2013-05-09 04:59:00,49.1,47.2,30.24,SSW,202,0.0,0.0,93,0.00,,---,0.00,VWS V14.01,2013-05-09 11:59:00,
2013-05-09 05:04:00,49.1,47.2,30.24,ESE,112,0.0,0.0,93,0.00,,---,0.00,VWS V14.01,2013-05-09 12:04:00,
2013-05-09 05:10:00,49.1,46.9,30.24,ESE,112,0.0,0.0,92,0.00,,---,0.00,VWS V14.01,2013-05-09 12:10:00,
2013-05-09 05:15:00,49.1,47.2,30.24,West,270,0.0,1.6,93,0.00,,---,0.00,VWS V14.01,2013-05-09 12:15:00,
2013-05-09 05:20:00,49.1,47.2,30.24,West,270,0.0,0.0,93,0.00,,---,0.00,VWS V14.01,2013-05-09 12:20:00,
2013-05-09 05:25:00,49.1,47.2,30.24,NNE,22,0.0,0.9,93,0.00,,---,0.00,VWS V14.01,2013-05-09 12:25:00,
2013-05-09 05:30:00,48.9,47.0,30.24,ENE,68,0.0,1.1,93,0.00,,---,0.00,VWS V14.01,2013-05-09 12:30:00,
2013-05-09 05:35:00,48.9,47.0,30.24,ESE,112,0.0,0.0,93,0.00,,---,0.00,VWS V14.01,2013-05-09 12:35:00,
2013-05-09 05:40:00,48.9,47.0,30.24,West,270,0.0,1.3,93,0.00,,---,0.00,VWS V14.01,2013-05-09 12:40:00,
2013-05-09 05:45:00,48.7,46.8,30.24,West,270,0.0,0.0,93,0.00,,---,0.00,VWS V14.01,2013-05-09 12:45:00,
2013-05-09 05:50:00,48.9,47.0,30.24,West,270,0.0,0.0,93,0.00,,---,0.00,VWS V14.01,2013-05-09 12:50:00,
2013-05-09 05:55:00,48.9,47.0,30.24,West,270,0.0,0.0,93,0.00,,---,0.00,VWS V14.01,2013-05-09 12:55:00,
2013-05-09 06:00:00,48.9,47.0,30.24,WSW,248,0.0,0.0,93,0.00,,---,0.00,VWS V14.01,2013-05-09 13:00:00,
2013-05-09 06:05:00,48.9,47.0,30.24,ESE,112,0.0,0.0,93,0.00,,---,0.00,VWS V14.01,2013-05-09 13:05:00,
2013-05-09 06:10:00,48.9,47.0,30.24,ENE,68,0.0,0.0,93,0.00,,---,0.00,VWS V14.01,2013-05-09 13:10:00,
2013-05-09 06:15:00,48.9,47.0,30.24,ESE,112,0.0,0.0,93,0.00,,---,0.00,VWS V14.01,2013-05-09 13:15:00,
2013-05-09 06:20:00,49.1,47.2,30.27,NE,45,0.0,0.0,93,0.00,,---,0.00,VWS V14.01,2013-05-09 13:20:00,
2013-05-09 06:25:00,49.1,47.2,30.27,NE,45,0.0,0.0,93,0.00,,---,0.00,VWS V14.01,2013-05-09 13:25:00,
2013-05-09 06:30:00,49.1,47.2,30.27,SSE,158,0.0,0.0,93,0.00,,---,0.00,VWS V14.01,2013-05-09 13:30:00,
2013-05-09 06:35:00,49.1,47.5,30.27,ENE,68,0.0,0.0,94,0.00,,---,0.00,VWS V14.01,2013-05-09 13:35:00,
2013-05-09 06:40:00,49.1,47.2,30.27,ESE,112,0.0,0.0,93,0.00,,---,0.00,VWS V14.01,2013-05-09 13:40:00,
2013-05-09 06:45:00,49.1,47.5,30.27,West,270,0.9,1.6,94,0.00,,---,0.00,VWS V14.01,2013-05-09 13:45:00,
2013-05-09 06:50:00,48.9,47.0,30.27,West,270,0.0,0.0,93,0.00,,---,0.00,VWS V14.01,2013-05-09 13:50:00,
2013-05-09 06:55:00,49.1,47.5,30.27,NW,315,0.0,0.0,94,0.00,,---,0.00,VWS V14.01,2013-05-09 13:55:00,
2013-05-09 07:01:00,49.1,47.5,30.27,North,0,0.0,0.0,94,0.00,,---,0.00,VWS V14.01,2013-05-09 14:01:00,
2013-05-09 07:06:00,49.3,47.6,30.27,NNW,338,0.0,0.0,94,0.00,,---,0.00,VWS V14.01,2013-05-09 14:06:00,
2013-05-09 07:11:00,49.5,47.8,30.27,West,270,0.0,0.0,94,0.00,,---,0.00,VWS V14.01,2013-05-09 14:11:00,
2013-05-09 07:16:00,49.5,47.8,30.27,WNW,292,0.0,0.0,94,0.00,,---,0.00,VWS V14.01,2013-05-09 14:16:00,
2013-05-09 07:21:00,49.5,47.8,30.27,West,270,0.9,2.5,94,0.00,,---,0.00,VWS V14.01,2013-05-09 14:21:00,
2013-05-09 07:26:00,49.3,47.3,30.27,West,270,0.0,0.0,93,0.00,,---,0.00,VWS V14.01,2013-05-09 14:26:00,
2013-05-09 07:31:00,49.5,47.8,30.27,WNW,292,0.0,0.0,94,0.00,,---,0.00,VWS V14.01,2013-05-09 14:31:00,
2013-05-09 07:36:00,49.6,48.0,30.27,NW,315,0.0,0.0,94,0.00,,---,0.00,VWS V14.01,2013-05-09 14:36:00,
2013-05-09 07:41:00,49.6,47.7,30.27,WNW,292,0.0,0.0,93,0.00,,---,0.00,VWS V14.01,2013-05-09 14:41:00,
2013-05-09 07:46:00,49.8,48.2,30.27,WNW,292,0.0,0.0,94,0.00,,---,0.00,VWS V14.01,2013-05-09 14:46:00,
2013-05-09 07:51:00,49.8,47.9,30.27,West,270,0.0,0.0,93,0.00,,---,0.00,VWS V14.01,2013-05-09 14:51:00,
2013-05-09 07:56:00,50.0,48.1,30.27,West,270,0.0,0.0,93,0.00,,---,0.00,VWS V14.01,2013-05-09 14:56:00,
2013-05-09 08:01:00,50.0,47.8,30.27,West,270,0.0,0.0,92,0.00,,---,0.00,VWS V14.01,2013-05-09 15:01:00,
2013-05-09 08:06:00,50.2,48.0,30.27,West,270,1.3,1.3,92,0.00,,---,0.00,VWS V14.01,2013-05-09 15:06:00,
2013-05-09 08:11:00,50.2,48.0,30.27,West,270,0.0,0.0,92,0.00,,---,0.00,VWS V14.01,2013-05-09 15:11:00,
2013-05-09 08:16:00,50.2,48.0,30.27,West,270,0.0,1.3,92,0.00,,---,0.00,VWS V14.01,2013-05-09 15:16:00,
2013-05-09 08:21:00,50.4,48.1,30.27,West,270,0.0,0.0,92,0.00,,---,0.00,VWS V14.01,2013-05-09 15:21:00,
2013-05-09 08:26:00,50.5,48.3,30.27,West,270,1.3,1.3,92,0.00,,---,0.00,VWS V14.01,2013-05-09 15:26:00,
2013-05-09 08:31:00,50.9,48.7,30.27,West,270,0.0,0.0,92,0.00,,---,0.00,VWS V14.01,2013-05-09 15:31:00,
2013-05-09 08:36:00,50.9,48.7,30.27,WSW,248,0.0,0.0,92,0.00,,---,0.00,VWS V14.01,2013-05-09 15:36:00,
2013-05-09 08:41:00,50.9,48.4,30.27,WSW,248,1.3,1.3,91,0.00,,---,0.00,VWS V14.01,2013-05-09 15:41:00,
2013-05-09 08:47:00,51.4,48.9,30.27,South,180,0.0,0.0,91,0.00,,---,0.00,VWS V14.01,2013-05-09 15:47:00,
2013-05-09 08:52:00,51.6,49.1,30.27,East,90,0.0,0.0,91,0.00,,---,0.00,VWS V14.01,2013-05-09 15:52:00,
2013-05-09 08:57:00,52.2,49.3,30.27,NNE,22,0.0,0.0,90,0.00,,---,0.00,VWS V14.01,2013-05-09 15:57:00,
2013-05-09 09:02:00,52.5,49.4,30.27,WNW,292,0.0,0.0,89,0.00,,---,0.00,VWS V14.01,2013-05-09 16:02:00,
2013-05-09 09:07:00,52.7,49.2,30.27,WSW,248,0.0,1.1,88,0.00,,---,0.00,VWS V14.01,2013-05-09 16:07:00,
2013-05-09 09:12:00,53.2,49.8,30.27,WSW,248,0.0,0.0,88,0.00,,---,0.00,VWS V14.01,2013-05-09 16:12:00,
2013-05-09 09:17:00,53.6,49.8,30.27,WSW,248,1.6,1.6,87,0.00,,---,0.00,VWS V14.01,2013-05-09 16:17:00,
2013-05-09 09:22:00,54.1,50.0,30.27,ESE,112,1.6,1.6,86,0.00,,---,0.00,VWS V14.01,2013-05-09 16:22:00,
2013-05-09 09:27:00,54.1,49.4,30.27,WSW,248,0.0,1.1,84,0.00,,---,0.00,VWS V14.01,2013-05-09 16:27:00,
2013-05-09 09:32:00,54.7,50.0,30.27,SSW,202,0.0,0.0,84,0.00,,---,0.00,VWS V14.01,2013-05-09 16:32:00,
2013-05-09 09:37:00,55.2,50.5,30.27,WSW,248,0.0,0.0,84,0.00,,---,0.00,VWS V14.01,2013-05-09 16:37:00,
2013-05-09 09:42:00,55.0,49.7,30.27,West,270,0.0,0.0,82,0.00,,---,0.00,VWS V14.01,2013-05-09 16:42:00,
2013-05-09 09:47:00,55.6,50.2,30.27,WNW,292,0.0,0.0,82,0.00,,---,0.00,VWS V14.01,2013-05-09 16:47:00,
2013-05-09 09:52:00,56.8,51.1,30.27,ENE,68,0.0,1.6,81,0.00,,---,0.00,VWS V14.01,2013-05-09 16:52:00,
2013-05-09 09:57:00,57.7,50.9,30.27,East,90,0.0,0.0,78,0.00,,---,0.00,VWS V14.01,2013-05-09 16:57:00,
2013-05-09 10:02:00,58.5,50.6,30.27,SSE,158,2.0,2.0,75,0.00,,---,0.00,VWS V14.01,2013-05-09 17:02:00,
2013-05-09 10:07:00,59.0,50.7,30.27,WNW,292,0.0,0.0,74,0.00,,---,0.00,VWS V14.01,2013-05-09 17:07:00,
2013-05-09 10:12:00,61.3,52.6,30.27,ENE,68,0.9,1.3,73,0.00,,---,0.00,VWS V14.01,2013-05-09 17:12:00,
2013-05-09 10:17:00,62.2,52.7,30.27,West,270,0.0,0.0,71,0.00,,---,0.00,VWS V14.01,2013-05-09 17:17:00,
2013-05-09 10:22:00,65.5,53.8,30.27,SSE,158,0.9,1.1,66,0.00,,---,0.00,VWS V14.01,2013-05-09 17:22:00,
2013-05-09 10:27:00,67.3,54.7,30.27,ESE,112,0.0,0.0,64,0.00,,---,0.00,VWS V14.01,2013-05-09 17:27:00,
2013-05-09 10:32:00,68.0,53.2,30.27,East,90,1.3,1.3,59,0.00,,---,0.00,VWS V14.01,2013-05-09 17:32:00,
2013-05-09 10:37:00,68.9,52.6,30.27,East,90,0.0,2.7,56,0.00,,---,0.00,VWS V14.01,2013-05-09 17:37:00,
2013-05-09 10:42:00,69.3,51.9,30.27,West,270,1.3,2.0,54,0.00,,---,0.00,VWS V14.01,2013-05-09 17:42:00,
2013-05-09 10:47:00,69.8,52.4,30.24,South,180,1.3,2.0,54,0.00,,---,0.00,VWS V14.01,2013-05-09 17:47:00,
2013-05-09 10:53:00,71.1,52.6,30.24,South,180,0.0,1.1,52,0.00,,---,0.00,VWS V14.01,2013-05-09 17:53:00,
2013-05-09 10:58:00,71.4,51.3,30.24,West,270,0.0,1.6,49,0.00,,---,0.00,VWS V14.01,2013-05-09 17:58:00,
2013-05-09 11:03:00,72.3,51.5,30.24,South,180,0.0,2.7,48,0.00,,---,0.00,VWS V14.01,2013-05-09 18:03:00,
2013-05-09 11:08:00,72.9,50.9,30.24,SSE,158,1.1,2.0,46,0.00,,---,0.00,VWS V14.01,2013-05-09 18:08:00,
2013-05-09 11:13:00,72.7,51.3,30.24,SSW,202,0.0,0.0,47,0.00,,---,0.00,VWS V14.01,2013-05-09 18:13:00,
2013-05-09 11:18:00,73.6,53.3,30.24,SSW,202,1.1,1.3,49,0.00,,---,0.00,VWS V14.01,2013-05-09 18:18:00,
2013-05-09 11:23:00,74.7,52.5,30.24,SW,225,1.3,1.6,46,0.00,,---,0.00,VWS V14.01,2013-05-09 18:23:00,
2013-05-09 11:28:00,74.3,50.4,30.24,SSW,202,4.0,5.6,43,0.00,,---,0.00,VWS V14.01,2013-05-09 18:28:00,
2013-05-09 11:33:00,74.1,50.2,30.24,South,180,3.1,3.1,43,0.00,,---,0.00,VWS V14.01,2013-05-09 18:33:00,
2013-05-09 11:39:00,74.5,51.2,30.24,SSW,202,1.3,2.9,44,0.00,,---,0.00,VWS V14.01,2013-05-09 18:39:00,
2013-05-09 11:44:00,75.9,51.8,30.24,NE,45,1.3,1.3,43,0.00,,---,0.00,VWS V14.01,2013-05-09 18:44:00,
2013-05-09 11:49:00,77.2,53.0,30.24,WSW,248,0.0,1.6,43,0.00,,---,0.00,VWS V14.01,2013-05-09 18:49:00,
2013-05-09 11:54:00,78.4,54.7,30.24,WSW,248,2.9,2.9,44,0.00,,---,0.00,VWS V14.01,2013-05-09 18:54:00,
2013-05-09 11:59:00,77.0,51.5,30.24,South,180,0.0,2.0,41,0.00,,---,0.00,VWS V14.01,2013-05-09 18:59:00,
2013-05-09 12:04:00,79.3,53.6,30.24,East,90,0.0,0.0,41,0.00,,---,0.00,VWS V14.01,2013-05-09 19:04:00,
2013-05-09 12:09:00,79.7,53.3,30.24,SW,225,0.0,2.5,40,0.00,,---,0.00,VWS V14.01,2013-05-09 19:09:00,
2013-05-09 12:14:00,79.0,50.5,30.24,SSW,202,2.5,2.9,37,0.00,,---,0.00,VWS V14.01,2013-05-09 19:14:00,
2013-05-09 12:19:00,79.0,51.2,30.21,SSE,158,4.5,4.5,38,0.00,,---,0.00,VWS V14.01,2013-05-09 19:19:00,
2013-05-09 12:24:00,80.2,52.3,30.21,South,180,0.0,2.0,38,0.00,,---,0.00,VWS V14.01,2013-05-09 19:24:00,
2013-05-09 12:29:00,80.8,52.8,30.21,ESE,112,2.2,2.2,38,0.00,,---,0.00,VWS V14.01,2013-05-09 19:29:00,
2013-05-09 12:34:00,81.1,51.7,30.18,West,270,2.7,2.7,36,0.00,,---,0.00,VWS V14.01,2013-05-09 19:34:00,
2013-05-09 12:39:00,81.9,52.3,30.18,SSE,158,1.1,2.0,36,0.00,,---,0.00,VWS V14.01,2013-05-09 19:39:00,
2013-05-09 12:44:00,81.7,50.6,30.18,East,90,2.5,4.0,34,0.00,,---,0.00,VWS V14.01,2013-05-09 19:44:00,
2013-05-09 12:49:00,82.4,52.8,30.21,North,0,0.0,1.3,36,0.00,,---,0.00,VWS V14.01,2013-05-09 19:49:00,
2013-05-09 12:54:00,82.2,50.3,30.21,SE,135,1.3,1.3,33,0.00,,---,0.00,VWS V14.01,2013-05-09 19:54:00,
2013-05-09 12:59:00,82.6,49.8,30.21,East,90,0.0,1.6,32,0.00,,---,0.00,VWS V14.01,2013-05-09 19:59:00,
2013-05-09 13:04:00,82.0,48.5,30.21,West,270,2.2,3.1,31,0.00,,---,0.00,VWS V14.01,2013-05-09 20:04:00,
2013-05-09 13:09:00,81.5,47.1,30.21,WNW,292,2.0,3.4,30,0.00,,---,0.00,VWS V14.01,2013-05-09 20:09:00,
2013-05-09 13:14:00,81.7,47.3,30.21,East,90,1.1,1.1,30,0.00,,---,0.00,VWS V14.01,2013-05-09 20:14:00,
2013-05-09 13:19:00,82.2,48.6,30.21,WSW,248,1.3,2.5,31,0.00,,---,0.00,VWS V14.01,2013-05-09 20:19:00,
2013-05-09 13:24:00,81.3,47.0,30.21,West,270,0.0,2.0,30,0.00,,---,0.00,VWS V14.01,2013-05-09 20:24:00,
2013-05-09 13:30:00,81.1,46.8,30.21,West,270,3.4,3.6,30,0.00,,---,0.00,VWS V14.01,2013-05-09 20:30:00,
2013-05-09 13:35:00,81.9,47.4,30.21,ENE,68,2.2,2.2,30,0.00,,---,0.00,VWS V14.01,2013-05-09 20:35:00,
2013-05-09 13:40:00,81.3,47.8,30.21,NNE,22,2.9,2.9,31,0.00,,---,0.00,VWS V14.01,2013-05-09 20:40:00,
2013-05-09 13:45:00,81.1,46.8,30.21,ENE,68,2.5,2.5,30,0.00,,---,0.00,VWS V14.01,2013-05-09 20:45:00,
2013-05-09 13:50:00,80.8,46.5,30.21,North,0,2.0,2.7,30,0.00,,---,0.00,VWS V14.01,2013-05-09 20:50:00,
2013-05-09 13:55:00,80.6,45.4,30.21,NE,45,2.7,3.8,29,0.00,,---,0.00,VWS V14.01,2013-05-09 20:55:00,
2013-05-09 14:00:00,79.5,45.4,30.21,WNW,292,3.8,3.8,30,0.00,,---,0.00,VWS V14.01,2013-05-09 21:00:00,
2013-05-09 14:05:00,79.7,45.6,30.18,NE,45,3.1,6.0,30,0.00,,---,0.00,VWS V14.01,2013-05-09 21:05:00,
2013-05-09 14:10:00,79.5,45.4,30.18,ESE,112,3.4,3.4,30,0.00,,---,0.00,VWS V14.01,2013-05-09 21:10:00,
2013-05-09 14:15:00,80.2,46.0,30.18,NE,45,0.0,0.0,30,0.00,,---,0.00,VWS V14.01,2013-05-09 21:15:00,
2013-05-09 14:20:00,81.1,46.8,30.18,NNE,22,1.6,1.6,30,0.00,,---,0.00,VWS V14.01,2013-05-09 21:20:00,
2013-05-09 14:25:00,81.1,44.0,30.18,ENE,68,2.7,3.6,27,0.00,,---,0.00,VWS V14.01,2013-05-09 21:25:00,
2013-05-09 14:30:00,81.1,45.0,30.18,ENE,68,2.0,4.0,28,0.00,,---,0.00,VWS V14.01,2013-05-09 21:30:00,
2013-05-09 14:35:00,82.0,46.7,30.18,NE,45,0.0,0.0,29,0.00,,---,0.00,VWS V14.01,2013-05-09 21:35:00,
2013-05-09 14:40:00,82.8,44.4,30.18,North,0,0.0,2.5,26,0.00,,---,0.00,VWS V14.01,2013-05-09 21:40:00,
2013-05-09 14:45:00,82.4,42.0,30.18,North,0,0.9,4.0,24,0.00,,---,0.00,VWS V14.01,2013-05-09 21:45:00,
2013-05-09 14:50:00,82.4,43.1,30.15,NNE,22,0.0,0.0,25,0.00,,---,0.00,VWS V14.01,2013-05-09 21:50:00,
2013-05-09 14:55:00,81.9,41.6,30.15,NNE,22,2.5,3.6,24,0.00,,---,0.00,VWS V14.01,2013-05-09 21:55:00,
2013-05-09 15:00:00,81.1,39.9,30.15,ENE,68,3.4,3.4,23,0.00,,---,0.00,VWS V14.01,2013-05-09 22:00:00,
2013-05-09 15:05:00,81.1,39.9,30.15,North,0,1.1,3.1,23,0.00,,---,0.00,VWS V14.01,2013-05-09 22:05:00,
2013-05-09 15:10:00,81.1,41.0,30.15,ESE,112,0.0,1.6,24,0.00,,---,0.00,VWS V14.01,2013-05-09 22:10:00,
2013-05-09 15:15:00,81.5,40.2,30.15,ENE,68,1.3,2.7,23,0.00,,---,0.00,VWS V14.01,2013-05-09 22:15:00,
2013-05-09 15:20:00,80.8,38.4,30.12,ENE,68,3.6,3.6,22,0.00,,---,0.00,VWS V14.01,2013-05-09 22:20:00,
2013-05-09 15:25:00,80.4,40.4,30.12,ENE,68,2.2,2.2,24,0.00,,---,0.00,VWS V14.01,2013-05-09 22:25:00,
2013-05-09 15:30:00,80.4,41.4,30.12,ESE,112,1.6,1.6,25,0.00,,---,0.00,VWS V14.01,2013-05-09 22:30:00,
2013-05-09 15:35:00,81.0,41.9,30.15,ESE,112,1.1,1.1,25,0.00,,---,0.00,VWS V14.01,2013-05-09 22:35:00,
2013-05-09 15:40:00,80.8,40.7,30.15,North,0,2.5,4.0,24,0.00,,---,0.00,VWS V14.01,2013-05-09 22:40:00,
2013-05-09 15:45:00,81.1,43.0,30.15,NE,45,2.7,2.7,26,0.00,,---,0.00,VWS V14.01,2013-05-09 22:45:00,
2013-05-09 15:50:00,81.9,43.7,30.15,NW,315,0.0,2.0,26,0.00,,---,0.00,VWS V14.01,2013-05-09 22:50:00,
2013-05-09 15:55:00,82.4,44.1,30.15,East,90,2.9,2.9,26,0.00,,---,0.00,VWS V14.01,2013-05-09 22:55:00,
2013-05-09 16:00:00,82.8,45.4,30.15,NE,45,0.0,1.3,27,0.00,,---,0.00,VWS V14.01,2013-05-09 23:00:00,
2013-05-09 16:05:00,83.8,46.3,30.15,North,0,1.3,2.2,27,0.00,,---,0.00,VWS V14.01,2013-05-09 23:05:00,
2013-05-09 16:10:00,83.5,44.0,30.15,NNW,338,1.1,2.5,25,0.00,,---,0.00,VWS V14.01,2013-05-09 23:10:00,
2013-05-09 16:15:00,84.4,43.7,30.15,North,0,2.0,2.2,24,0.00,,---,0.00,VWS V14.01,2013-05-09 23:15:00,
2013-05-09 16:20:00,84.6,43.8,30.15,ENE,68,1.3,4.3,24,0.00,,---,0.00,VWS V14.01,2013-05-09 23:20:00,
2013-05-09 16:25:00,83.8,44.3,30.15,NNW,338,2.5,2.9,25,0.00,,---,0.00,VWS V14.01,2013-05-09 23:25:00,
2013-05-09 16:30:00,82.8,41.2,30.15,North,0,2.5,3.4,23,0.00,,---,0.00,VWS V14.01,2013-05-09 23:30:00,
2013-05-09 16:35:00,83.3,43.8,30.12,West,270,2.0,3.4,25,0.00,,---,0.00,VWS V14.01,2013-05-09 23:35:00,
2013-05-09 16:40:00,83.5,41.8,30.12,WNW,292,0.9,2.5,23,0.00,,---,0.00,VWS V14.01,2013-05-09 23:40:00,
2013-05-09 16:45:00,84.0,43.4,30.12,SE,135,3.6,3.6,24,0.00,,---,0.00,VWS V14.01,2013-05-09 23:45:00,
2013-05-09 16:50:00,83.5,42.9,30.12,NNE,22,0.0,2.2,24,0.00,,---,0.00,VWS V14.01,2013-05-09 23:50:00,
2013-05-09 16:55:00,83.3,42.8,30.12,WNW,292,0.0,0.0,24,0.00,,---,0.00,VWS V14.01,2013-05-09 23:55:00,
2013-05-09 17:00:00,83.7,44.2,30.12,SW,225,1.3,2.2,25,0.00,,---,0.00,VWS V14.01,2013-05-10 00:00:00,
2013-05-09 17:05:00,83.1,42.6,30.12,West,270,1.6,2.9,24,0.00,,---,0.00,VWS V14.01,2013-05-10 00:05:00,
2013-05-09 17:10:00,82.8,43.4,30.12,NNE,22,2.7,2.7,25,0.00,,---,0.00,VWS V14.01,2013-05-10 00:10:00,
2013-05-09 17:15:00,83.1,44.7,30.12,West,270,0.0,1.1,26,0.00,,---,0.00,VWS V14.01,2013-05-10 00:15:00,
2013-05-09 17:20:00,82.9,44.6,30.12,WNW,292,0.0,0.9,26,0.00,,---,0.00,VWS V14.01,2013-05-10 00:20:00,
2013-05-09 17:25:00,82.8,45.4,30.12,West,270,0.0,0.0,27,0.00,,---,0.00,VWS V14.01,2013-05-10 00:25:00,
2013-05-09 17:30:00,82.8,46.4,30.12,West,270,0.0,1.1,28,0.00,,---,0.00,VWS V14.01,2013-05-10 00:30:00,
2013-05-09 17:35:00,82.4,47.0,30.12,North,0,0.0,1.3,29,0.00,,---,0.00,VWS V14.01,2013-05-10 00:35:00,
2013-05-09 17:40:00,80.6,45.4,30.12,West,270,2.5,2.5,29,0.00,,---,0.00,VWS V14.01,2013-05-10 00:40:00,
2013-05-09 17:45:00,78.8,44.8,30.12,WNW,292,2.7,2.7,30,0.00,,---,0.00,VWS V14.01,2013-05-10 00:45:00,
2013-05-09 17:50:00,77.7,43.8,30.12,West,270,0.0,1.3,30,0.00,,---,0.00,VWS V14.01,2013-05-10 00:50:00,
2013-05-09 17:55:00,77.0,44.1,30.12,WNW,292,1.3,1.3,31,0.00,,---,0.00,VWS V14.01,2013-05-10 00:55:00,
2013-05-09 18:00:00,76.1,44.1,30.12,West,270,1.1,2.0,32,0.00,,---,0.00,VWS V14.01,2013-05-10 01:00:00,
2013-05-09 18:05:00,75.7,44.6,30.12,West,270,0.0,2.5,33,0.00,,---,0.00,VWS V14.01,2013-05-10 01:05:00,
2013-05-09 18:10:00,75.0,44.0,30.12,NW,315,0.9,1.6,33,0.00,,---,0.00,VWS V14.01,2013-05-10 01:10:00,
2013-05-09 18:15:00,74.5,44.3,30.12,WNW,292,0.0,1.1,34,0.00,,---,0.00,VWS V14.01,2013-05-10 01:15:00,
2013-05-09 18:20:00,73.8,44.4,30.12,West,270,0.0,0.0,35,0.00,,---,0.00,VWS V14.01,2013-05-10 01:20:00,
2013-05-09 18:25:00,73.2,44.7,30.12,NNW,338,0.0,0.9,36,0.00,,---,0.00,VWS V14.01,2013-05-10 01:25:00,
2013-05-09 18:30:00,72.7,44.9,30.12,ENE,68,0.0,0.0,37,0.00,,---,0.00,VWS V14.01,2013-05-10 01:30:00,
2013-05-09 18:35:00,72.3,45.3,30.12,NE,45,0.0,0.0,38,0.00,,---,0.00,VWS V14.01,2013-05-10 01:35:00,
2013-05-09 18:40:00,71.8,46.8,30.12,North,0,1.3,2.7,41,0.00,,---,0.00,VWS V14.01,2013-05-10 01:40:00,
2013-05-09 18:45:00,71.4,45.9,30.12,WSW,248,1.6,1.6,40,0.00,,---,0.00,VWS V14.01,2013-05-10 01:45:00,
2013-05-09 18:50:00,71.2,46.4,30.12,SW,225,0.0,0.0,41,0.00,,---,0.00,VWS V14.01,2013-05-10 01:50:00,
2013-05-09 18:55:00,70.9,46.0,30.12,NNE,22,0.0,0.0,41,0.00,,---,0.00,VWS V14.01,2013-05-10 01:55:00,
2013-05-09 19:00:00,70.5,45.7,30.12,North,0,0.0,0.0,41,0.00,,---,0.00,VWS V14.01,2013-05-10 02:00:00,
2013-05-09 19:05:00,70.2,46.0,30.09,North,0,0.0,0.0,42,0.00,,---,0.00,VWS V14.01,2013-05-10 02:05:00,
2013-05-09 19:10:00,69.8,45.7,30.09,North,0,0.0,0.0,42,0.00,,---,0.00,VWS V14.01,2013-05-10 02:10:00,
2013-05-09 19:15:00,69.4,46.0,30.09,North,0,0.0,0.0,43,0.00,,---,0.00,VWS V14.01,2013-05-10 02:15:00,
2013-05-09 19:20:00,69.1,45.7,30.12,SW,225,0.0,0.0,43,0.00,,---,0.00,VWS V14.01,2013-05-10 02:20:00,
2013-05-09 19:25:00,68.9,45.5,30.12,SE,135,0.0,0.0,43,0.00,,---,0.00,VWS V14.01,2013-05-10 02:25:00,
2013-05-09 19:30:00,68.5,45.8,30.12,SE,135,0.0,0.0,44,0.00,,---,0.00,VWS V14.01,2013-05-10 02:30:00,
2013-05-09 19:36:00,68.4,46.2,30.12,SE,135,0.0,0.0,45,0.00,,---,0.00,VWS V14.01,2013-05-10 02:36:00,
2013-05-09 19:41:00,68.0,45.9,30.12,West,270,0.0,0.0,45,0.00,,---,0.00,VWS V14.01,2013-05-10 02:41:00,
2013-05-09 19:46:00,67.6,46.1,30.12,West,270,0.0,0.0,46,0.00,,---,0.00,VWS V14.01,2013-05-10 02:46:00,
2013-05-09 19:51:00,67.3,46.4,30.12,West,270,0.0,0.0,47,0.00,,---,0.00,VWS V14.01,2013-05-10 02:51:00,
2013-05-09 19:56:00,66.9,46.6,30.12,West,270,0.0,0.0,48,0.00,,---,0.00,VWS V14.01,2013-05-10 02:56:00,
2013-05-09 20:01:00,66.4,46.7,30.12,West,270,0.0,0.0,49,0.00,,---,0.00,VWS V14.01,2013-05-10 03:01:00,
2013-05-09 20:06:00,66.0,46.9,30.12,West,270,0.0,0.0,50,0.00,,---,0.00,VWS V14.01,2013-05-10 03:06:00,
2013-05-09 20:11:00,65.5,47.4,30.12,West,270,0.0,0.0,52,0.00,,---,0.00,VWS V14.01,2013-05-10 03:11:00,
2013-05-09 20:16:00,64.9,47.4,30.12,West,270,0.0,0.0,53,0.00,,---,0.00,VWS V14.01,2013-05-10 03:16:00,
2013-05-09 20:21:00,64.6,46.6,30.12,West,270,0.0,0.0,52,0.00,,---,0.00,VWS V14.01,2013-05-10 03:21:00,
2013-05-09 20:26:00,64.0,47.6,30.12,West,270,0.0,0.0,55,0.00,,---,0.00,VWS V14.01,2013-05-10 03:26:00,
2013-05-09 20:31:00,63.5,47.5,30.12,West,270,0.0,0.0,56,0.00,,---,0.00,VWS V14.01,2013-05-10 03:31:00,
2013-05-09 20:36:00,63.1,47.7,30.12,West,270,0.0,0.0,57,0.00,,---,0.00,VWS V14.01,2013-05-10 03:36:00,
2013-05-09 20:41:00,62.8,47.8,30.12,West,270,0.0,0.0,58,0.00,,---,0.00,VWS V14.01,2013-05-10 03:41:00,
2013-05-09 20:46:00,62.2,47.3,30.12,West,270,0.0,0.0,58,0.00,,---,0.00,VWS V14.01,2013-05-10 03:46:00,
2013-05-09 20:51:00,61.9,47.9,30.12,West,270,0.0,0.0,60,0.00,,---,0.00,VWS V14.01,2013-05-10 03:51:00,
2013-05-09 20:56:00,61.3,47.8,30.12,West,270,0.0,0.0,61,0.00,,---,0.00,VWS V14.01,2013-05-10 03:56:00,
2013-05-09 21:01:00,61.0,48.3,30.12,West,270,0.0,0.0,63,0.00,,---,0.00,VWS V14.01,2013-05-10 04:01:00,
2013-05-09 21:02:00,60.8,48.1,30.15,West,270,0.0,0.0,63,0.00,,---,0.00,VWS V14.01,2013-05-10 04:02:00,
2013-05-09 21:07:00,60.4,47.8,30.15,West,270,0.0,0.0,63,0.00,,---,0.00,VWS V14.01,2013-05-10 04:07:00,
2013-05-09 21:12:00,60.3,48.5,30.15,West,270,0.0,0.0,65,0.00,,---,0.00,VWS V14.01,2013-05-10 04:12:00,
2013-05-09 21:17:00,59.9,48.5,30.15,West,270,0.0,0.0,66,0.00,,---,0.00,VWS V14.01,2013-05-10 04:17:00,
2013-05-09 21:22:00,59.7,48.8,30.15,West,270,0.0,0.0,67,0.00,,---,0.00,VWS V14.01,2013-05-10 04:22:00,
2013-05-09 21:27:00,59.4,48.4,30.15,West,270,0.0,0.0,67,0.00,,---,0.00,VWS V14.01,2013-05-10 04:27:00,
2013-05-09 21:32:00,59.0,48.5,30.15,West,270,0.0,0.0,68,0.00,,---,0.00,VWS V14.01,2013-05-10 04:32:00,
2013-05-09 21:37:00,58.6,48.9,30.15,West,270,0.0,0.0,70,0.00,,---,0.00,VWS V14.01,2013-05-10 04:37:00,
2013-05-09 21:42:00,58.3,48.5,30.15,West,270,0.0,0.0,70,0.00,,---,0.00,VWS V14.01,2013-05-10 04:42:00,
2013-05-09 21:47:00,58.1,48.8,30.15,West,270,0.0,0.0,71,0.00,,---,0.00,VWS V14.01,2013-05-10 04:47:00,
2013-05-09 21:52:00,57.6,48.2,30.15,West,270,0.0,0.0,71,0.00,,---,0.00,VWS V14.01,2013-05-10 04:52:00,
2013-05-09 21:57:00,57.2,48.3,30.15,West,270,0.0,0.0,72,0.00,,---,0.00,VWS V14.01,2013-05-10 04:57:00,
2013-05-09 22:02:00,57.0,48.5,30.15,West,270,0.0,0.0,73,0.00,,---,0.00,VWS V14.01,2013-05-10 05:02:00,
2013-05-09 22:07:00,56.7,48.5,30.15,West,270,0.0,0.0,74,0.00,,---,0.00,VWS V14.01,2013-05-10 05:07:00,
2013-05-09 22:12:00,56.5,48.3,30.15,West,270,0.0,0.0,74,0.00,,---,0.00,VWS V14.01,2013-05-10 05:12:00,
2013-05-09 22:17:00,55.9,48.5,30.15,West,270,0.0,0.0,76,0.00,,---,0.00,VWS V14.01,2013-05-10 05:17:00,
2013-05-09 22:22:00,55.8,48.3,30.15,West,270,0.0,0.0,76,0.00,,---,0.00,VWS V14.01,2013-05-10 05:22:00,
2013-05-09 22:27:00,55.6,48.2,30.15,West,270,0.0,0.0,76,0.00,,---,0.00,VWS V14.01,2013-05-10 05:27:00,
2013-05-09 22:32:00,55.0,48.3,30.15,West,270,0.0,0.0,78,0.00,,---,0.00,VWS V14.01,2013-05-10 05:32:00,
2013-05-09 22:38:00,54.9,48.1,30.15,West,270,0.0,0.0,78,0.00,,---,0.00,VWS V14.01,2013-05-10 05:38:00,
2013-05-09 22:43:00,54.5,48.1,30.15,West,270,0.0,0.0,79,0.00,,---,0.00,VWS V14.01,2013-05-10 05:43:00,
2013-05-09 22:48:00,54.3,48.0,30.18,West,270,0.0,0.0,79,0.00,,---,0.00,VWS V14.01,2013-05-10 05:48:00,
2013-05-09 22:53:00,54.0,47.6,30.18,West,270,0.0,0.0,79,0.00,,---,0.00,VWS V14.01,2013-05-10 05:53:00,
2013-05-09 22:58:00,53.6,47.6,30.18,West,270,0.0,0.0,80,0.00,,---,0.00,VWS V14.01,2013-05-10 05:58:00,
2013-05-09 23:03:00,53.4,47.7,30.18,West,270,0.0,0.0,81,0.00,,---,0.00,VWS V14.01,2013-05-10 06:03:00,
2013-05-09 23:08:00,53.2,47.6,30.18,West,270,0.0,0.0,81,0.00,,---,0.00,VWS V14.01,2013-05-10 06:08:00,
2013-05-09 23:13:00,53.2,47.6,30.18,West,270,0.0,0.0,81,0.00,,---,0.00,VWS V14.01,2013-05-10 06:13:00,
2013-05-09 23:18:00,52.5,47.2,30.18,West,270,0.0,0.0,82,0.00,,---,0.00,VWS V14.01,2013-05-10 06:18:00,
2013-05-09 23:23:00,52.3,47.0,30.18,West,270,0.0,0.0,82,0.00,,---,0.00,VWS V14.01,2013-05-10 06:23:00,
2013-05-09 23:28:00,52.2,46.8,30.18,West,270,0.0,0.0,82,0.00,,---,0.00,VWS V14.01,2013-05-10 06:28:00,
2013-05-09 23:33:00,52.2,47.5,30.18,West,270,0.0,0.0,84,0.00,,---,0.00,VWS V14.01,2013-05-10 06:33:00,
2013-05-09 23:38:00,51.8,47.1,30.18,West,270,0.0,0.0,84,0.00,,---,0.00,VWS V14.01,2013-05-10 06:38:00,
2013-05-09 23:43:00,52.0,47.3,30.18,West,270,0.0,0.0,84,0.00,,---,0.00,VWS V14.01,2013-05-10 06:43:00,
2013-05-09 23:48:00,51.6,47.6,30.21,North,0,0.0,0.0,86,0.00,,---,0.00,VWS V14.01,2013-05-10 06:48:00,
2013-05-09 23:53:00,51.6,47.6,30.21,North,0,0.0,0.0,86,0.00,,---,0.00,VWS V14.01,2013-05-10 06:53:00,
2013-05-09 23:58:00,51.4,47.4,30.21,North,0,0.0,0.0,86,0.00,,---,0.00,VWS V14.01,2013-05-10 06:58:00,